Weather History for Thermal, CA

Change the Weather History Date:

Wednesday, May 8, 2013

  Actual Average Record
Temperature  
Mean Temperature 75 °F 77 °F  
Max Temperature 85 °F 93 °F 106 °F (1989)
Min Temperature 64 °F 60 °F 49 °F (1971)
Degree Days  
Heating Degree Days 0 0  
Month to date heating degree days 0 0  
Since 1 July heating degree days 1124 1180  
Cooling Degree Days 10 12  
Month to date cooling degree days 80 86  
Year to date cooling degree days 508 342  
Growing Degree Days 24 (Base 50)    
Moisture  
Dew Point 43 °F    
Average Humidity 36    
Maximum Humidity 52    
Minimum Humidity 19    
Precipitation  
Precipitation 0.00 in 0.01 in 0.04 in (1977)
Month to date precipitation 0.00 0.01  
Year to date precipitation 0.44 1.78  
Since 1 July precipitation 2.62 3.16  
Snow  
Snow 0.00 in - - ()
Month to date snowfall 0.0  
Year to date snowfall 0.0  
Since 1 July snowfall 0.0  
Snow Depth 0.00 in    
Sea Level Pressure  
Sea Level Pressure 29.94 in    
Wind  
Wind Speed 10 mph (NW)    
Max Wind Speed 18 mph    
Max Gust Speed 25 mph    
Visibility 10 miles    
Events      
T = Trace of Precipitation, MM = Missing Value Source: NWS Daily Summary

Daily Weather History Graph

Daily Weather History Graph

Search for Another Location

Airport:

Trip Planner

Search our weather history database for the weather conditions in past years. The results will help you decide how hot, cold, wet, or windy it might be!

Date:

Astronomy

May. 08, 2013 Rise Set
Actual Time 5:49 AM PDT 7:33 PM PDT
Civil Twilight 5:22 AM PDT 8:00 PM PDT
Nautical Twilight 4:49 AM PDT 8:33 PM PDT
Astronomical Twilight 4:15 AM PDT 9:07 PM PDT
Moon 4:56 AM PDT (5/8) 6:38 PM PDT (5/8)
Length of Visible Light 14h 38m
Length of Day
13h 44m
Waning Crescent, 1% of the Moon is Illuminated
May 8
Waning Crescent
May 9
New
May 17
First Quarter
May 24
Full
May 31
Last Quarter

Hourly Weather History & Observations

Time (PDT) Temp. Dew Point Humidity Pressure Visibility Wind Dir Wind Speed Gust Speed Precip Events Conditions
12:52 AM 66.0 °F 46.0 °F 48% 29.95 in 10.0 mi NNW 13.8 mph 23.0 mph N/A   Clear
1:52 AM 64.9 °F 46.0 °F 50% 29.94 in 10.0 mi NNW 16.1 mph 25.3 mph N/A   Clear
2:52 AM 64.9 °F 45.0 °F 48% 29.94 in 10.0 mi NNW 16.1 mph 23.0 mph N/A   Clear
3:52 AM 64.0 °F 44.1 °F 48% 29.94 in 10.0 mi NW 9.2 mph - N/A   Clear
4:52 AM 64.0 °F 44.1 °F 48% 29.95 in 10.0 mi NNW 12.7 mph - N/A   Clear
5:52 AM 64.0 °F 44.1 °F 48% 29.96 in 10.0 mi NNW 13.8 mph - N/A   Clear
6:52 AM 66.0 °F 45.0 °F 47% 29.98 in 10.0 mi NW 13.8 mph - N/A   Clear
7:52 AM 69.1 °F 46.0 °F 44% 29.99 in 10.0 mi NW 13.8 mph - N/A   Clear
8:52 AM 72.0 °F 44.1 °F 37% 29.99 in 10.0 mi NW 13.8 mph 24.2 mph N/A   Clear
9:52 AM 73.0 °F 44.1 °F 35% 30.00 in 10.0 mi WNW 8.1 mph - N/A   Clear
10:52 AM 75.0 °F 44.1 °F 33% 30.00 in 10.0 mi Variable 3.5 mph - N/A   Clear
11:52 AM 79.0 °F 41.0 °F 26% 29.98 in 10.0 mi SW 5.8 mph - N/A   Clear
12:52 PM 82.0 °F 41.0 °F 23% 29.96 in 10.0 mi Variable 3.5 mph - N/A   Clear
1:52 PM 84.0 °F 37.9 °F 19% 29.95 in 10.0 mi South 8.1 mph 16.1 mph N/A   Clear
2:52 PM 84.0 °F 39.0 °F 20% 29.93 in 10.0 mi SE 8.1 mph - N/A   Clear
3:52 PM 84.0 °F 39.0 °F 20% 29.91 in 10.0 mi ESE 9.2 mph 16.1 mph N/A   Clear
4:52 PM 82.0 °F 37.0 °F 20% 29.89 in 10.0 mi Variable 3.5 mph - N/A   Clear
5:52 PM 82.0 °F 35.1 °F 18% 29.88 in 10.0 mi ESE 8.1 mph - N/A   Clear
6:52 PM 80.1 °F 36.0 °F 20% 29.88 in 10.0 mi SE 4.6 mph - N/A   Clear
7:52 PM 75.9 °F 46.9 °F 36% 29.90 in 10.0 mi NNW 19.6 mph 23.0 mph N/A   Clear
8:52 PM 73.0 °F 46.9 °F 39% 29.91 in 10.0 mi NNW 10.4 mph - N/A   Clear
9:52 PM 71.1 °F 46.9 °F 42% 29.92 in 10.0 mi NNW 15.0 mph - N/A   Clear
10:52 PM 70.0 °F 46.9 °F 44% 29.94 in 10.0 mi NNW 17.3 mph 25.3 mph N/A   Clear
11:52 PM 69.1 °F 46.9 °F 45% 29.94 in 10.0 mi NW 12.7 mph 23.0 mph N/A   Clear